Weather History for Beckley, WV

Change the Weather History Date:

Saturday, October 5, 2013

  Actual Average Record
Temperature  
Mean Temperature 69 °F 56 °F  
Max Temperature 80 °F 66 °F 88 °F (1941)
Min Temperature 57 °F 46 °F 24 °F (1935)
Degree Days  
Heating Degree Days 0 9  
Month to date heating degree days 3 43  
Since 1 July heating degree days 112 177  
Cooling Degree Days 4 0  
Month to date cooling degree days 8 2  
Year to date cooling degree days 608 552  
Growing Degree Days 18 (Base 50)    
Moisture  
Dew Point 58 °F    
Average Humidity 74    
Maximum Humidity 93    
Minimum Humidity 54    
Precipitation  
Precipitation 0.00 in 0.08 in 1.17 in (1942)
Month to date precipitation 0.00 0.40  
Year to date precipitation 31.69 33.07  
Snow  
Snow 0.00 in - - ()
Month to date snowfall 0.0  
Since 1 September snowfall 0.0  
Snow Depth 0.00 in    
Sea Level Pressure  
Sea Level Pressure 30.11 in    
Wind  
Wind Speed 3 mph (SE)    
Max Wind Speed 9 mph    
Max Gust Speed 14 mph    
Visibility 8 miles    
Events      
T = Trace of Precipitation, MM = Missing Value Source: NWS Daily Summary

Daily Weather History Graph

Daily Weather History Graph

Search for Another Location

Airport:

Trip Planner

Search our weather history database for the weather conditions in past years. The results will help you decide how hot, cold, wet, or windy it might be!

Date:

Astronomy

Oct. 05, 2013 Rise Set
Actual Time 7:23 AM EDT 7:01 PM EDT
Civil Twilight 6:57 AM EDT 7:27 PM EDT
Nautical Twilight 6:27 AM EDT 7:57 PM EDT
Astronomical Twilight 5:56 AM EDT 8:28 PM EDT
Moon 8:00 AM EDT (10/5) 7:20 PM EDT (10/5)
Length of Visible Light 12h 29m
Length of Day
11h 37m
New Moon, 0% of the Moon is Illuminated
Oct 5
New Moon
Oct 11
First Quarter
Oct 18
Full
Oct 26
Last Quarter
Nov 3
New

Hourly Weather History & Observations

Time (EDT) Temp. Dew Point Humidity Pressure Visibility Wind Dir Wind Speed Gust Speed Precip Events Conditions
12:51 AM 60.1 °F 57.9 °F 93% 30.12 in 9.0 mi Calm Calm - N/A   Clear
1:51 AM 59.0 °F 57.0 °F 93% 30.12 in 6.0 mi Calm Calm - N/A   Clear
2:51 AM 59.0 °F 57.0 °F 93% 30.12 in 8.0 mi Calm Calm - N/A   Clear
3:51 AM 57.9 °F 55.9 °F 93% 30.12 in 8.0 mi Calm Calm - N/A   Clear
4:51 AM 57.0 °F 55.0 °F 93% 30.12 in 7.0 mi Calm Calm - N/A   Clear
5:51 AM 59.0 °F 55.9 °F 90% 30.13 in 8.0 mi Calm Calm - N/A   Clear
6:51 AM 57.9 °F 55.9 °F 93% 30.14 in 2.0 mi Calm Calm - N/A   Clear
7:09 AM 57.2 °F 55.4 °F 94% 30.21 in 1.2 mi Calm Calm - N/A   Clear
7:23 AM 57.2 °F 57.2 °F 100% 30.21 in 2.0 mi Calm Calm - N/A   Clear
7:41 AM 57.2 °F 55.4 °F 94% 30.21 in 4.0 mi Calm Calm - N/A   Clear
7:51 AM 57.9 °F 55.9 °F 93% 30.15 in 5.0 mi Calm Calm - N/A   Clear
8:51 AM 64.0 °F 60.1 °F 87% 30.15 in 9.0 mi Calm Calm - N/A   Clear
9:51 AM 68.0 °F 61.0 °F 78% 30.15 in 10.0 mi South 4.6 mph - N/A   Clear
10:51 AM 72.0 °F 61.0 °F 68% 30.14 in 10.0 mi South 3.5 mph - N/A   Clear
12:51 PM 75.0 °F 60.1 °F 60% 30.12 in 10.0 mi WNW 5.8 mph - N/A   Clear
1:51 PM 77.0 °F 59.0 °F 54% 30.09 in 10.0 mi Variable 3.5 mph - N/A   Clear
2:51 PM 78.1 °F 61.0 °F 56% 30.06 in 10.0 mi ESE 5.8 mph - N/A   Clear
3:51 PM 79.0 °F 61.0 °F 54% 30.05 in 10.0 mi SSE 6.9 mph - N/A   Clear
4:51 PM 79.0 °F 60.1 °F 52% 30.04 in 10.0 mi Calm Calm - N/A   Partly Cloudy
5:51 PM 78.1 °F 60.1 °F 54% 30.03 in 10.0 mi East 4.6 mph - N/A   Mostly Cloudy
6:51 PM 73.0 °F 60.1 °F 64% 30.04 in 10.0 mi SE 4.6 mph - N/A   Partly Cloudy
8:51 PM 69.1 °F 59.0 °F 70% 30.05 in 10.0 mi SSE 5.8 mph - N/A   Clear
9:51 PM 69.1 °F 57.9 °F 68% 30.04 in 10.0 mi SSE 5.8 mph - N/A   Clear
10:51 PM 68.0 °F 57.9 °F 70% 30.03 in 10.0 mi SSE 6.9 mph - N/A   Clear
11:51 PM 66.9 °F 59.0 °F 76% 30.10 in 10.0 mi SE 6.9 mph - N/A   Clear